• In Hungary
  • List of Countries
  • For 7 days
  • Water Temperature
  • Satellite Maps
  • Weather Map
  • News
  • Weather Widgets
  • user-avatar
    Login

    Hourly Weather Nesebyr

    Today, 17 October, Tuesday

    Time Temperature Precipitation Wind Pressure Humidity
    00:00 +15°C° 0 mm 1 mps 769 mmHg 81%
    01:00 +15°C° 0 mm 1 mps 769 mmHg 82%
    02:00 +15°C° 0 mm 1 mps 769 mmHg 82%
    03:00 +15°C° 0 mm 1 mps 769 mmHg 82%
    04:00 +14°C° 0 mm 1 mps 769 mmHg 82%
    05:00 +14°C° 0 mm 1 mps 768 mmHg 82%
    06:00 +15°C° 0 mm 1 mps 768 mmHg 78%
    07:00 +16°C° 0 mm 1 mps 768 mmHg 73%
    08:00 +18°C° 0 mm 1 mps 768 mmHg 68%
    09:00 +20°C° 0 mm 1 mps 768 mmHg 59%
    10:00 +23°C° 0 mm 1 mps 768 mmHg 51%
    11:00 +25°C° 0 mm 1 mps 768 mmHg 42%
    12:00 +26°C° 0 mm 1 mps 768 mmHg 39%
    13:00 +27°C° 0 mm 1 mps 768 mmHg 35%
    14:00 +27°C° 0 mm 1 mps 767 mmHg 32%
    15:00 +26°C° 0 mm 1 mps 767 mmHg 36%
    16:00 +25°C° 0 mm 2 mps 767 mmHg 40%
    17:00 +24°C° 0 mm 2 mps 766 mmHg 44%
    18:00 +21°C° 0 mm 2 mps 766 mmHg 46%
    19:00 +21°C° 0 mm 1 mps 766 mmHg 49%
    20:00 +20°C° 0 mm 1 mps 767 mmHg 51%
    21:00 +19°C° 0 mm 1 mps 766 mmHg 51%
    22:00 +19°C° 0 mm 1 mps 766 mmHg 50%
    23:00 +17°C° 0 mm 0 mps 766 mmHg 49%

    Tomorrow, 18 October, Wednesday

    Time Temperature Precipitation Wind Pressure Humidity
    00:00 +17°C° 0 mm 0 mps 766 mmHg 49%
    01:00 +16°C° 0 mm 0 mps 766 mmHg 49%
    02:00 +16°C° 0 mm 0 mps 766 mmHg 49%
    03:00 +16°C° 0 mm 0 mps 766 mmHg 50%
    04:00 +15°C° 0 mm 0 mps 765 mmHg 51%
    05:00 +15°C° 0 mm 0 mps 765 mmHg 51%
    06:00 +16°C° 0 mm 0 mps 765 mmHg 50%
    07:00 +17°C° 0 mm 0 mps 765 mmHg 49%
    08:00 +18°C° 0 mm 0 mps 765 mmHg 48%
    09:00 +22°C° 0 mm 1 mps 765 mmHg 43%
    10:00 +24°C° 0 mm 1 mps 765 mmHg 39%
    11:00 +26°C° 0 mm 1 mps 765 mmHg 34%
    12:00 +26°C° 0 mm 1 mps 764 mmHg 33%
    13:00 +27°C° 0 mm 2 mps 764 mmHg 33%
    14:00 +27°C° 0 mm 2 mps 764 mmHg 32%
    15:00 +26°C° 0 mm 2 mps 763 mmHg 37%
    16:00 +25°C° 0 mm 2 mps 763 mmHg 42%
    17:00 +23°C° 0 mm 2 mps 763 mmHg 47%
    18:00 +21°C° 0 mm 2 mps 763 mmHg 50%
    19:00 +20°C° 0 mm 1 mps 763 mmHg 54%
    20:00 +19°C° 0 mm 1 mps 763 mmHg 57%
    21:00 +18°C° 0 mm 1 mps 763 mmHg 58%
    22:00 +18°C° 0 mm 1 mps 763 mmHg 58%
    23:00 +18°C° 0 mm 1 mps 763 mmHg 59%

    Day after tomorrow, 19 October, Thursday

    Time Temperature Precipitation Wind Pressure Humidity
    00:00 +16°C° 0 mm 1 mps 762 mmHg 59%
    01:00 +15°C° 0 mm 0 mps 762 mmHg 60%
    02:00 +15°C° 0 mm 0 mps 762 mmHg 61%
    03:00 +14°C° 0 mm 0 mps 762 mmHg 61%
    04:00 +14°C° 0 mm 0 mps 762 mmHg 62%
    05:00 +14°C° 0 mm 0 mps 762 mmHg 62%
    06:00 +15°C° 0 mm 0 mps 762 mmHg 59%
    07:00 +16°C° 0 mm 0 mps 762 mmHg 57%
    08:00 +17°C° 0 mm 0 mps 762 mmHg 54%
    09:00 +19°C° 0 mm 0 mps 762 mmHg 48%
    10:00 +23°C° 0 mm 1 mps 762 mmHg 42%
    11:00 +25°C° 0 mm 1 mps 762 mmHg 35%
    12:00 +26°C° 0 mm 1 mps 761 mmHg 33%
    13:00 +27°C° 0 mm 1 mps 761 mmHg 32%
    14:00 +27°C° 0 mm 2 mps 761 mmHg 30%
    15:00 +26°C° 0 mm 2 mps 761 mmHg 35%
    16:00 +25°C° 0 mm 2 mps 760 mmHg 40%
    17:00 +23°C° 0 mm 2 mps 760 mmHg 45%
    18:00 +21°C° 0 mm 2 mps 761 mmHg 49%
    19:00 +21°C° 0 mm 1 mps 761 mmHg 53%
    20:00 +19°C° 0 mm 1 mps 761 mmHg 58%
    21:00 +19°C° 0 mm 1 mps 761 mmHg 59%
    22:00 +19°C° 0 mm 1 mps 761 mmHg 60%
    23:00 +18°C° 0 mm 1 mps 761 mmHg 61%

    20 October, Friday

    Time Temperature Precipitation Wind Pressure Humidity
    00:00 +18°C° 0 mm 1 mps 761 mmHg 61%
    01:00 +18°C° 0 mm 1 mps 761 mmHg 62%
    02:00 +16°C° 0 mm 1 mps 761 mmHg 62%
    03:00 +16°C° 0 mm 1 mps 761 mmHg 62%
    04:00 +16°C° 0 mm 1 mps 761 mmHg 62%
    05:00 +16°C° 0 mm 1 mps 761 mmHg 62%
    06:00 +16°C° 0 mm 1 mps 761 mmHg 60%
    07:00 +18°C° 0 mm 1 mps 761 mmHg 57%
    08:00 +19°C° 0 mm 1 mps 761 mmHg 55%
    09:00 +21°C° 0 mm 1 mps 762 mmHg 48%
    10:00 +24°C° 0 mm 1 mps 762 mmHg 41%
    11:00 +26°C° 0 mm 1 mps 762 mmHg 35%
    12:00 +26°C° 0 mm 1 mps 762 mmHg 33%
    13:00 +27°C° 0 mm 1 mps 761 mmHg 31%
    14:00 +28°C° 0 mm 1 mps 761 mmHg 29%
    15:00 +27°C° 0 mm 1 mps 761 mmHg 33%
    16:00 +25°C° 0 mm 2 mps 761 mmHg 37%
    17:00 +24°C° 0 mm 2 mps 761 mmHg 40%
    18:00 +23°C° 0 mm 2 mps 761 mmHg 43%
    19:00 +22°C° 0 mm 1 mps 762 mmHg 45%
    20:00 +20°C° 0 mm 1 mps 762 mmHg 47%
    21:00 +20°C° 0 mm 1 mps 762 mmHg 48%
    22:00 +20°C° 0 mm 1 mps 762 mmHg 48%
    23:00 +19°C° 0 mm 1 mps 762 mmHg 49%

    21 October, Saturday

    Time Temperature Precipitation Wind Pressure Humidity
    00:00 +19°C° 0 mm 1 mps 762 mmHg 50%
    01:00 +19°C° 0 mm 1 mps 762 mmHg 50%
    02:00 +18°C° 0 mm 1 mps 762 mmHg 51%
    03:00 +18°C° 0 mm 1 mps 762 mmHg 52%
    04:00 +18°C° 0 mm 1 mps 762 mmHg 53%
    05:00 +18°C° 0 mm 1 mps 762 mmHg 54%
    06:00 +18°C° 0 mm 1 mps 762 mmHg 53%
    07:00 +19°C° 0 mm 1 mps 762 mmHg 52%
    08:00 +20°C° 0 mm 1 mps 762 mmHg 51%
    09:00 +22°C° 0 mm 1 mps 762 mmHg 46%
    10:00 +24°C° 0 mm 1 mps 762 mmHg 41%
    11:00 +26°C° 0 mm 1 mps 762 mmHg 36%
    12:00 +27°C° 0 mm 1 mps 762 mmHg 34%
    13:00 +27°C° 0 mm 1 mps 761 mmHg 33%
    14:00 +28°C° 0 mm 1 mps 761 mmHg 31%
    15:00 +27°C° 0 mm 1 mps 761 mmHg 34%
    16:00 +25°C° 0 mm 1 mps 761 mmHg 38%
    17:00 +24°C° 0 mm 1 mps 761 mmHg 41%
    18:00 +23°C° 0 mm 1 mps 761 mmHg 44%
    19:00 +22°C° 0 mm 1 mps 761 mmHg 46%
    20:00 +21°C° 0 mm 1 mps 761 mmHg 48%
    21:00 +20°C° 0 mm 1 mps 761 mmHg 49%
    22:00 +20°C° 0 mm 1 mps 761 mmHg 50%
    23:00 +19°C° 0 mm 1 mps 761 mmHg 51%

    22 October, Sunday

    Time Temperature Precipitation Wind Pressure Humidity
    00:00 +19°C° 0 mm 1 mps 761 mmHg 52%
    01:00 +19°C° 0 mm 1 mps 761 mmHg 53%
    02:00 +18°C° 0 mm 1 mps 760 mmHg 54%
    03:00 +18°C° 0 mm 1 mps 760 mmHg 55%
    04:00 +18°C° 0 mm 1 mps 760 mmHg 56%
    05:00 +18°C° 0 mm 1 mps 760 mmHg 57%
    06:00 +18°C° 0 mm 1 mps 760 mmHg 55%
    07:00 +19°C° 0 mm 1 mps 760 mmHg 54%
    08:00 +20°C° 0 mm 1 mps 760 mmHg 52%
    09:00 +22°C° 0 mm 1 mps 760 mmHg 47%
    10:00 +24°C° 0 mm 1 mps 760 mmHg 41%
    11:00 +26°C° 0 mm 1 mps 760 mmHg 36%
    12:00 +26°C° 0 mm 1 mps 760 mmHg 34%
    13:00 +27°C° 0 mm 1 mps 759 mmHg 33%
    14:00 +28°C° 0 mm 1 mps 759 mmHg 31%
    15:00 +26°C° 0 mm 2 mps 759 mmHg 35%
    16:00 +25°C° 0 mm 2 mps 759 mmHg 38%
    17:00 +24°C° 0 mm 2 mps 758 mmHg 41%
    18:00 +21°C° 0 mm 2 mps 758 mmHg 44%
    19:00 +20°C° 0 mm 2 mps 759 mmHg 47%
    20:00 +19°C° 0 mm 2 mps 759 mmHg 49%
    21:00 +19°C° 0 mm 2 mps 758 mmHg 51%
    22:00 +18°C° 0 mm 2 mps 758 mmHg 52%
    23:00 +18°C° 0 mm 2 mps 758 mmHg 54%
    Show more